Year,Month,Day,Hour,Minute,Value (Times are PST for temperature in C)
2015,06,28,00,00,22.90
2015,06,28,00,01,22.80
2015,06,28,00,02,22.80
2015,06,28,00,03,22.80
2015,06,28,00,04,22.80
2015,06,28,00,05,22.70
2015,06,28,00,06,22.70
2015,06,28,00,07,22.70
2015,06,28,00,08,22.70
2015,06,28,00,09,22.60
2015,06,28,00,10,22.60
2015,06,28,00,11,22.60
2015,06,28,00,12,22.60
2015,06,28,00,13,22.60
2015,06,28,00,14,22.50
2015,06,28,00,15,22.50
2015,06,28,00,16,22.50
2015,06,28,00,17,22.40
2015,06,28,00,18,22.40
2015,06,28,00,19,22.40
2015,06,28,00,20,22.30
2015,06,28,00,21,22.30
2015,06,28,00,22,22.30
2015,06,28,00,23,22.30
2015,06,28,00,24,22.20
2015,06,28,00,25,22.20
2015,06,28,00,26,22.20
2015,06,28,00,27,22.20
2015,06,28,00,28,22.10
2015,06,28,00,29,22.10
2015,06,28,00,30,22.10
2015,06,28,00,31,22.10
2015,06,28,00,32,22.00
2015,06,28,00,33,22.00
2015,06,28,00,34,22.00
2015,06,28,00,35,21.90
2015,06,28,00,36,21.90
2015,06,28,00,37,21.90
2015,06,28,00,38,21.90
2015,06,28,00,39,21.90
2015,06,28,00,40,21.80
2015,06,28,00,41,21.80
2015,06,28,00,42,21.80
2015,06,28,00,43,21.80
2015,06,28,00,44,21.80
2015,06,28,00,45,21.80
2015,06,28,00,46,21.70
2015,06,28,00,47,21.70
2015,06,28,00,48,21.70
2015,06,28,00,49,21.70
2015,06,28,00,50,21.70
2015,06,28,00,51,21.60
2015,06,28,00,52,21.60
2015,06,28,00,53,21.60
2015,06,28,00,54,21.60
2015,06,28,00,55,21.50
2015,06,28,00,56,21.50
2015,06,28,00,57,21.50
2015,06,28,00,58,21.50
2015,06,28,00,59,21.40
2015,06,28,01,00,21.40
2015,06,28,01,01,21.40
2015,06,28,01,02,21.30
2015,06,28,01,03,21.30
2015,06,28,01,04,21.30
2015,06,28,01,05,21.30
2015,06,28,01,06,21.30
2015,06,28,01,07,21.20
2015,06,28,01,08,21.20
2015,06,28,01,09,21.20
2015,06,28,01,10,21.20
2015,06,28,01,11,21.20
2015,06,28,01,12,21.20
2015,06,28,01,13,21.10
2015,06,28,01,14,21.10
2015,06,28,01,15,21.10
2015,06,28,01,16,21.10
2015,06,28,01,17,21.10
2015,06,28,01,18,21.00
2015,06,28,01,19,21.00
2015,06,28,01,20,20.90
2015,06,28,01,21,20.90
2015,06,28,01,22,20.90
2015,06,28,01,23,20.90
2015,06,28,01,24,20.80
2015,06,28,01,25,20.80
2015,06,28,01,26,20.80
2015,06,28,01,27,20.80
2015,06,28,01,28,20.80
2015,06,28,01,29,20.70
2015,06,28,01,30,20.70
2015,06,28,01,31,20.70
2015,06,28,01,32,20.70
2015,06,28,01,33,20.70
2015,06,28,01,34,20.70
2015,06,28,01,35,20.70
2015,06,28,01,36,20.70
2015,06,28,01,37,20.60
2015,06,28,01,38,20.60
2015,06,28,01,39,20.60
2015,06,28,01,40,20.60
2015,06,28,01,41,20.60
2015,06,28,01,42,20.60
2015,06,28,01,43,20.60
2015,06,28,01,44,20.60
2015,06,28,01,45,20.50
2015,06,28,01,46,20.50
2015,06,28,01,47,20.50
2015,06,28,01,48,20.40
2015,06,28,01,49,20.40
2015,06,28,01,50,20.40
2015,06,28,01,51,20.40
2015,06,28,01,52,20.40
2015,06,28,01,53,20.40
2015,06,28,01,54,20.30
2015,06,28,01,55,20.30
2015,06,28,01,56,20.30
2015,06,28,01,57,20.30
2015,06,28,01,58,20.30
2015,06,28,01,59,20.30
2015,06,28,02,00,20.20
2015,06,28,02,01,20.20
2015,06,28,02,02,20.20
2015,06,28,02,03,20.20
2015,06,28,02,04,20.20
2015,06,28,02,05,20.20
2015,06,28,02,06,20.10
2015,06,28,02,07,20.10
2015,06,28,02,08,20.10
2015,06,28,02,09,20.10
2015,06,28,02,10,20.00
2015,06,28,02,11,20.00
2015,06,28,02,12,20.00
2015,06,28,02,13,20.00
2015,06,28,02,14,20.00
2015,06,28,02,15,19.90
2015,06,28,02,16,19.90
2015,06,28,02,17,19.90
2015,06,28,02,18,19.90
2015,06,28,02,19,19.90
2015,06,28,02,20,19.90
2015,06,28,02,21,19.90
2015,06,28,02,22,19.80
2015,06,28,02,23,19.80
2015,06,28,02,24,19.80
2015,06,28,02,25,19.80
2015,06,28,02,26,19.80
2015,06,28,02,27,19.80
2015,06,28,02,28,19.80
2015,06,28,02,29,19.80
2015,06,28,02,30,19.80
2015,06,28,02,31,19.70
2015,06,28,02,32,19.70
2015,06,28,02,33,19.70
2015,06,28,02,34,19.70
2015,06,28,02,35,19.70
2015,06,28,02,36,19.70
2015,06,28,02,37,19.70
2015,06,28,02,38,19.60
2015,06,28,02,39,19.60
2015,06,28,02,40,19.60
2015,06,28,02,41,19.60
2015,06,28,02,42,19.60
2015,06,28,02,43,19.60
2015,06,28,02,44,19.60
2015,06,28,02,45,19.50
2015,06,28,02,46,19.50
2015,06,28,02,47,19.50
2015,06,28,02,48,19.50
2015,06,28,02,49,19.50
2015,06,28,02,50,19.40
2015,06,28,02,51,19.40
2015,06,28,02,52,19.40
2015,06,28,02,53,19.40
2015,06,28,02,54,19.40
2015,06,28,02,55,19.40
2015,06,28,02,56,19.40
2015,06,28,02,57,19.30
2015,06,28,02,58,19.30
2015,06,28,02,59,19.30
2015,06,28,03,00,19.30
2015,06,28,03,01,19.30
2015,06,28,03,02,19.30
2015,06,28,03,03,19.30
2015,06,28,03,04,19.30
2015,06,28,03,05,19.30
2015,06,28,03,06,19.30
2015,06,28,03,07,19.30
2015,06,28,03,08,19.30
2015,06,28,03,09,19.20
2015,06,28,03,10,19.20
2015,06,28,03,11,19.20
2015,06,28,03,12,19.20
2015,06,28,03,13,19.20
2015,06,28,03,14,19.20
2015,06,28,03,15,19.20
2015,06,28,03,16,19.20
2015,06,28,03,17,19.20
2015,06,28,03,18,19.20
2015,06,28,03,19,19.10
2015,06,28,03,20,19.10
2015,06,28,03,21,19.10
2015,06,28,03,22,19.10
2015,06,28,03,23,19.10
2015,06,28,03,24,19.10
2015,06,28,03,25,19.00
2015,06,28,03,26,19.00
2015,06,28,03,27,19.00
2015,06,28,03,28,19.00
2015,06,28,03,29,18.90
2015,06,28,03,30,18.90
2015,06,28,03,31,18.90
2015,06,28,03,32,18.90
2015,06,28,03,33,18.90
2015,06,28,03,34,18.80
2015,06,28,03,35,18.80
2015,06,28,03,36,18.80
2015,06,28,03,37,18.80
2015,06,28,03,38,18.80
2015,06,28,03,39,18.80
2015,06,28,03,40,18.70
2015,06,28,03,41,18.70
2015,06,28,03,42,18.70
2015,06,28,03,43,18.70
2015,06,28,03,44,18.70
2015,06,28,03,45,18.70
2015,06,28,03,46,18.70
2015,06,28,03,47,18.70
2015,06,28,03,48,18.70
2015,06,28,03,49,18.60
2015,06,28,03,50,18.60
2015,06,28,03,51,18.60
2015,06,28,03,52,18.60
2015,06,28,03,53,18.60
2015,06,28,03,54,18.60
2015,06,28,03,55,18.60
2015,06,28,03,56,18.60
2015,06,28,03,57,18.50
2015,06,28,03,58,18.50
2015,06,28,03,59,18.50
2015,06,28,04,00,18.50
2015,06,28,04,01,18.40
2015,06,28,04,02,18.40
2015,06,28,04,03,18.40
2015,06,28,04,04,18.40
2015,06,28,04,05,18.40
2015,06,28,04,06,18.40
2015,06,28,04,07,18.40
2015,06,28,04,08,18.30
2015,06,28,04,09,18.30
2015,06,28,04,10,18.30
2015,06,28,04,11,18.30
2015,06,28,04,12,18.30
2015,06,28,04,13,18.30
2015,06,28,04,14,18.30
2015,06,28,04,15,18.30
2015,06,28,04,16,18.30
2015,06,28,04,17,18.20
2015,06,28,04,18,18.20
2015,06,28,04,19,18.20
2015,06,28,04,20,18.20
2015,06,28,04,21,18.20
2015,06,28,04,22,18.20
2015,06,28,04,23,18.20
2015,06,28,04,24,18.20
2015,06,28,04,25,18.20
2015,06,28,04,26,18.20
2015,06,28,04,27,18.10
2015,06,28,04,28,18.10
2015,06,28,04,29,18.10
2015,06,28,04,30,18.10
2015,06,28,04,31,18.10
2015,06,28,04,32,18.10
2015,06,28,04,33,18.10
2015,06,28,04,34,18.00
2015,06,28,04,35,18.00
2015,06,28,04,36,18.00
2015,06,28,04,37,18.00
2015,06,28,04,38,18.00
2015,06,28,04,39,18.00
2015,06,28,04,40,18.00
2015,06,28,04,41,17.90
2015,06,28,04,42,17.90
2015,06,28,04,43,17.90
2015,06,28,04,44,17.90
2015,06,28,04,45,17.90
2015,06,28,04,46,17.90
2015,06,28,04,47,17.80
2015,06,28,04,48,17.80
2015,06,28,04,49,17.80
2015,06,28,04,50,17.80
2015,06,28,04,51,17.80
2015,06,28,04,52,17.80
2015,06,28,04,53,17.80
2015,06,28,04,54,17.80
2015,06,28,04,55,17.80
2015,06,28,04,56,17.80
2015,06,28,04,57,17.70
2015,06,28,04,58,17.70
2015,06,28,04,59,17.70
2015,06,28,05,00,17.70
2015,06,28,05,01,17.70
2015,06,28,05,02,17.70
2015,06,28,05,03,17.70
2015,06,28,05,04,17.70
2015,06,28,05,05,17.70
2015,06,28,05,06,17.70
2015,06,28,05,07,17.70
2015,06,28,05,08,17.70
2015,06,28,05,09,17.70
2015,06,28,05,10,17.70
2015,06,28,05,11,17.70
2015,06,28,05,12,17.70
2015,06,28,05,13,17.70
2015,06,28,05,14,17.70
2015,06,28,05,15,17.60
2015,06,28,05,16,17.60
2015,06,28,05,17,17.60
2015,06,28,05,18,17.60
2015,06,28,05,19,17.60
2015,06,28,05,20,17.60
2015,06,28,05,21,17.60
2015,06,28,05,22,17.60
2015,06,28,05,23,17.60
2015,06,28,05,24,17.60
2015,06,28,05,25,17.60
2015,06,28,05,26,17.60
2015,06,28,05,27,17.60
2015,06,28,05,28,17.60
2015,06,28,05,29,17.60
2015,06,28,05,30,17.50
2015,06,28,05,31,17.50
2015,06,28,05,32,17.50
2015,06,28,05,33,17.50
2015,06,28,05,34,17.50
2015,06,28,05,35,17.50
2015,06,28,05,36,17.50
2015,06,28,05,37,17.50
2015,06,28,05,38,17.50
2015,06,28,05,39,17.50
2015,06,28,05,40,17.50
2015,06,28,05,41,17.40
2015,06,28,05,42,17.40
2015,06,28,05,43,17.40
2015,06,28,05,44,17.40
2015,06,28,05,45,17.40
2015,06,28,05,46,17.40
2015,06,28,05,47,17.40
2015,06,28,05,48,17.40
2015,06,28,05,49,17.40
2015,06,28,05,50,17.40
2015,06,28,05,51,17.40
2015,06,28,05,52,17.40
2015,06,28,05,53,17.40
2015,06,28,05,54,17.40
2015,06,28,05,55,17.40
2015,06,28,05,56,17.40
2015,06,28,05,57,17.40
2015,06,28,05,58,17.40
2015,06,28,05,59,17.40
2015,06,28,06,00,17.40
2015,06,28,06,01,17.40
2015,06,28,06,02,17.40
2015,06,28,06,03,17.40
2015,06,28,06,04,17.40
2015,06,28,06,05,17.40
2015,06,28,06,06,17.40
2015,06,28,06,07,17.40
2015,06,28,06,08,17.40
2015,06,28,06,09,17.40
2015,06,28,06,10,17.40
2015,06,28,06,11,17.40
2015,06,28,06,12,17.40
2015,06,28,06,13,17.40
2015,06,28,06,14,17.50
2015,06,28,06,15,17.50
2015,06,28,06,16,17.50
2015,06,28,06,17,17.60
2015,06,28,06,18,17.60
2015,06,28,06,19,17.60
2015,06,28,06,20,17.60
2015,06,28,06,21,17.60
2015,06,28,06,22,17.60
2015,06,28,06,23,17.70
2015,06,28,06,24,17.70
2015,06,28,06,25,17.70
2015,06,28,06,26,17.70
2015,06,28,06,27,17.70
2015,06,28,06,28,17.70
2015,06,28,06,29,17.70
2015,06,28,06,30,17.70
2015,06,28,06,31,17.70
2015,06,28,06,32,17.70
2015,06,28,06,33,17.70
2015,06,28,06,34,17.70
2015,06,28,06,35,17.70
2015,06,28,06,36,17.70
2015,06,28,06,37,17.70
2015,06,28,06,38,17.80
2015,06,28,06,39,17.80
2015,06,28,06,40,17.80
2015,06,28,06,41,17.80
2015,06,28,06,42,17.80
2015,06,28,06,43,17.80
2015,06,28,06,44,17.80
2015,06,28,06,45,17.80
2015,06,28,06,46,17.80
2015,06,28,06,47,17.80
2015,06,28,06,48,17.80
2015,06,28,06,49,17.80
2015,06,28,06,50,17.80
2015,06,28,06,51,17.80
2015,06,28,06,52,17.80
2015,06,28,06,53,17.80
2015,06,28,06,54,17.80
2015,06,28,06,55,17.90
2015,06,28,06,56,17.90
2015,06,28,06,57,17.90
2015,06,28,06,58,17.90
2015,06,28,06,59,17.90
2015,06,28,07,00,17.90
2015,06,28,07,01,17.90
2015,06,28,07,02,17.90
2015,06,28,07,03,17.90
2015,06,28,07,04,17.90
2015,06,28,07,05,17.90
2015,06,28,07,06,18.00
2015,06,28,07,07,17.90
2015,06,28,07,08,18.00
2015,06,28,07,09,18.00
2015,06,28,07,10,18.00
2015,06,28,07,11,18.00
2015,06,28,07,12,18.00
2015,06,28,07,13,18.00
2015,06,28,07,14,18.00
2015,06,28,07,15,18.00
2015,06,28,07,16,18.00
2015,06,28,07,17,18.00
2015,06,28,07,18,18.00
2015,06,28,07,19,18.00
2015,06,28,07,20,18.00
2015,06,28,07,21,18.00
2015,06,28,07,22,18.10
2015,06,28,07,23,18.10
2015,06,28,07,24,18.10
2015,06,28,07,25,18.10
2015,06,28,07,26,18.10
2015,06,28,07,27,18.10
2015,06,28,07,28,18.20
2015,06,28,07,29,18.20
2015,06,28,07,30,18.20
2015,06,28,07,31,18.20
2015,06,28,07,32,18.20
2015,06,28,07,33,18.30
2015,06,28,07,34,18.30
2015,06,28,07,35,18.30
2015,06,28,07,36,18.30
2015,06,28,07,37,18.30
2015,06,28,07,38,18.30
2015,06,28,07,39,18.30
2015,06,28,07,40,18.30
2015,06,28,07,41,18.40
2015,06,28,07,42,18.40
2015,06,28,07,43,18.40
2015,06,28,07,44,18.40
2015,06,28,07,45,18.40
2015,06,28,07,46,18.40
2015,06,28,07,47,18.50
2015,06,28,07,48,18.50
2015,06,28,07,49,18.50
2015,06,28,07,50,18.50
2015,06,28,07,51,18.60
2015,06,28,07,52,18.60
2015,06,28,07,53,18.60
2015,06,28,07,54,18.60
2015,06,28,07,55,18.60
2015,06,28,07,56,18.60
2015,06,28,07,57,18.70
2015,06,28,07,58,18.70
2015,06,28,07,59,18.70
2015,06,28,08,00,18.70
2015,06,28,08,01,18.70
2015,06,28,08,02,18.70
2015,06,28,08,03,18.80
2015,06,28,08,04,18.80
2015,06,28,08,05,18.80
2015,06,28,08,06,18.80
2015,06,28,08,07,18.80
2015,06,28,08,08,18.90
2015,06,28,08,09,18.90
2015,06,28,08,10,18.90
2015,06,28,08,11,19.00
2015,06,28,08,12,19.00
2015,06,28,08,13,19.00
2015,06,28,08,14,19.10
2015,06,28,08,15,19.10
2015,06,28,08,16,19.10
2015,06,28,08,17,19.20
2015,06,28,08,18,19.20
2015,06,28,08,19,19.20
2015,06,28,08,20,19.20
2015,06,28,08,21,19.30
2015,06,28,08,22,19.30
2015,06,28,08,23,19.30
2015,06,28,08,24,19.30
2015,06,28,08,25,19.40
2015,06,28,08,26,19.40
2015,06,28,08,27,19.40
2015,06,28,08,28,19.50
2015,06,28,08,29,19.50
2015,06,28,08,30,19.50
2015,06,28,08,31,19.60
2015,06,28,08,32,19.60
2015,06,28,08,33,19.70
2015,06,28,08,34,19.70
2015,06,28,08,35,19.70
2015,06,28,08,36,19.70
2015,06,28,08,37,19.80
2015,06,28,08,38,19.80
2015,06,28,08,39,19.80
2015,06,28,08,40,19.80
2015,06,28,08,41,19.80
2015,06,28,08,42,19.90
2015,06,28,08,43,19.90
2015,06,28,08,44,19.90
2015,06,28,08,45,19.90
2015,06,28,08,46,19.90
2015,06,28,08,47,20.00
2015,06,28,08,48,20.00
2015,06,28,08,49,20.00
2015,06,28,08,50,20.10
2015,06,28,08,51,20.20
2015,06,28,08,52,20.20
2015,06,28,08,53,20.30
2015,06,28,08,54,20.30
2015,06,28,08,55,20.40
2015,06,28,08,56,20.40
2015,06,28,08,57,20.50
2015,06,28,08,58,20.60
2015,06,28,08,59,20.60
2015,06,28,09,00,20.70
2015,06,28,09,01,20.70
2015,06,28,09,02,20.80
2015,06,28,09,03,20.80
2015,06,28,09,04,20.90
2015,06,28,09,05,21.00
2015,06,28,09,06,21.00
2015,06,28,09,07,21.10
2015,06,28,09,08,21.10
2015,06,28,09,09,21.20
2015,06,28,09,10,21.20
2015,06,28,09,11,21.20
2015,06,28,09,12,21.30
2015,06,28,09,13,21.30
2015,06,28,09,14,21.40
2015,06,28,09,15,21.50
2015,06,28,09,16,21.50
2015,06,28,09,17,21.60
2015,06,28,09,18,21.70
2015,06,28,09,19,21.70
2015,06,28,09,20,21.80
2015,06,28,09,21,21.90
2015,06,28,09,22,21.90
2015,06,28,09,23,22.00
2015,06,28,09,24,22.10
2015,06,28,09,25,22.20
2015,06,28,09,26,22.20
2015,06,28,09,27,22.30
2015,06,28,09,28,22.40
2015,06,28,09,29,22.50
2015,06,28,09,30,22.50
2015,06,28,09,31,22.60
2015,06,28,09,32,22.70
2015,06,28,09,33,22.80
2015,06,28,09,34,22.80
2015,06,28,09,35,22.90
2015,06,28,09,36,22.90
2015,06,28,09,37,23.00
2015,06,28,09,38,23.10
2015,06,28,09,39,23.10
2015,06,28,09,40,23.20
2015,06,28,09,41,23.20
2015,06,28,09,42,23.30
2015,06,28,09,43,23.30
2015,06,28,09,44,23.40
2015,06,28,09,45,23.40
2015,06,28,09,46,23.50
2015,06,28,09,47,23.60
2015,06,28,09,48,23.60
2015,06,28,09,49,23.70
2015,06,28,09,50,23.70
2015,06,28,09,51,23.80
2015,06,28,09,52,23.80
2015,06,28,09,53,23.90
2015,06,28,09,54,24.00
2015,06,28,09,55,24.10
2015,06,28,09,56,24.20
2015,06,28,09,57,24.20
2015,06,28,09,58,24.30
2015,06,28,09,59,24.40
2015,06,28,10,00,24.50
2015,06,28,10,01,24.60
2015,06,28,10,02,24.60
2015,06,28,10,03,24.70
2015,06,28,10,04,24.80
2015,06,28,10,05,24.90
2015,06,28,10,06,24.90
2015,06,28,10,07,25.00
2015,06,28,10,08,25.10
2015,06,28,10,09,25.20
2015,06,28,10,10,25.20
2015,06,28,10,11,25.30
2015,06,28,10,12,25.30
2015,06,28,10,13,25.40
2015,06,28,10,14,25.40
2015,06,28,10,15,25.50
2015,06,28,10,16,25.60
2015,06,28,10,17,25.60
2015,06,28,10,18,25.70
2015,06,28,10,19,25.70
2015,06,28,10,20,25.70
2015,06,28,10,21,25.80
2015,06,28,10,22,25.80
2015,06,28,10,23,25.80
2015,06,28,10,24,25.90
2015,06,28,10,25,25.90
2015,06,28,10,26,25.90
2015,06,28,10,27,25.90
2015,06,28,10,28,25.90
2015,06,28,10,29,25.90
2015,06,28,10,30,26.00
2015,06,28,10,31,26.00
2015,06,28,10,32,26.10
2015,06,28,10,33,26.10
2015,06,28,10,34,26.10
2015,06,28,10,35,26.20
2015,06,28,10,36,26.20
2015,06,28,10,37,26.20
2015,06,28,10,38,26.30
2015,06,28,10,39,26.30
2015,06,28,10,40,26.30
2015,06,28,10,41,26.40
2015,06,28,10,42,26.40
2015,06,28,10,43,26.50
2015,06,28,10,44,26.50
2015,06,28,10,45,26.60
2015,06,28,10,46,26.70
2015,06,28,10,47,26.70
2015,06,28,10,48,26.80
2015,06,28,10,49,26.80
2015,06,28,10,50,26.90
2015,06,28,10,51,27.00
2015,06,28,10,52,27.00
2015,06,28,10,53,27.10
2015,06,28,10,54,27.10
2015,06,28,10,55,27.20
2015,06,28,10,56,27.20
2015,06,28,10,57,27.20
2015,06,28,10,58,27.30
2015,06,28,10,59,27.30
2015,06,28,11,00,27.30
2015,06,28,11,01,27.30
2015,06,28,11,02,27.40
2015,06,28,11,03,27.40
2015,06,28,11,04,27.40
2015,06,28,11,05,27.40
2015,06,28,11,06,27.40
2015,06,28,11,07,27.40
2015,06,28,11,08,27.40
2015,06,28,11,09,27.40
2015,06,28,11,10,27.40
2015,06,28,11,11,27.50
2015,06,28,11,12,27.50
2015,06,28,11,13,27.50
2015,06,28,11,14,27.50
2015,06,28,11,15,27.60
2015,06,28,11,16,27.60
2015,06,28,11,17,27.60
2015,06,28,11,18,27.60
2015,06,28,11,19,27.60
2015,06,28,11,20,27.60
2015,06,28,11,21,27.60
2015,06,28,11,22,27.60
2015,06,28,11,23,27.60
2015,06,28,11,24,27.50
2015,06,28,11,25,27.60
2015,06,28,11,26,27.60
2015,06,28,11,27,27.60
2015,06,28,11,28,27.60
2015,06,28,11,29,27.60
2015,06,28,11,30,27.60
2015,06,28,11,31,27.60
2015,06,28,11,32,27.60
2015,06,28,11,33,27.60
2015,06,28,11,34,27.60
2015,06,28,11,35,27.60
2015,06,28,11,36,27.60
2015,06,28,11,37,27.60
2015,06,28,11,38,27.50
2015,06,28,11,39,27.50
2015,06,28,11,40,27.50
2015,06,28,11,41,27.50
2015,06,28,11,42,27.50
2015,06,28,11,43,27.50
2015,06,28,11,44,27.50
2015,06,28,11,45,27.50
2015,06,28,11,46,27.50
2015,06,28,11,47,27.50
2015,06,28,11,48,27.50
2015,06,28,11,49,27.50
2015,06,28,11,50,27.50
2015,06,28,11,51,27.50
2015,06,28,11,52,27.50
2015,06,28,11,53,27.50
2015,06,28,11,54,27.50
2015,06,28,11,55,27.50
2015,06,28,11,56,27.40
2015,06,28,11,57,27.40
2015,06,28,11,58,27.40
2015,06,28,11,59,27.40
2015,06,28,12,00,27.40
2015,06,28,12,01,27.40
2015,06,28,12,02,27.40
2015,06,28,12,03,27.40
2015,06,28,12,04,27.40
2015,06,28,12,05,27.30
2015,06,28,12,06,27.30
2015,06,28,12,07,27.30
2015,06,28,12,08,27.30
2015,06,28,12,09,27.30
2015,06,28,12,10,27.30
2015,06,28,12,11,27.30
2015,06,28,12,12,27.30
2015,06,28,12,13,27.30
2015,06,28,12,14,27.30
2015,06,28,12,15,27.30
2015,06,28,12,16,27.30
2015,06,28,12,17,27.30
2015,06,28,12,18,27.30
2015,06,28,12,19,27.30
2015,06,28,12,20,27.30
2015,06,28,12,21,27.30
2015,06,28,12,22,27.30
2015,06,28,12,23,27.30
2015,06,28,12,24,27.30
2015,06,28,12,25,27.30
2015,06,28,12,26,27.30
2015,06,28,12,27,27.30
2015,06,28,12,28,27.30
2015,06,28,12,29,27.30
2015,06,28,12,30,27.30
2015,06,28,12,31,27.20
2015,06,28,12,32,27.20
2015,06,28,12,33,27.20
2015,06,28,12,34,27.20
2015,06,28,12,35,27.20
2015,06,28,12,36,27.20
2015,06,28,12,37,27.20
2015,06,28,12,38,27.10
2015,06,28,12,39,27.10
2015,06,28,12,40,27.10
2015,06,28,12,41,27.10
2015,06,28,12,42,27.00
2015,06,28,12,43,27.00
2015,06,28,12,44,26.90
2015,06,28,12,45,26.90
2015,06,28,12,46,26.80
2015,06,28,12,47,26.80
2015,06,28,12,48,26.80
2015,06,28,12,49,26.70
2015,06,28,12,50,26.70
2015,06,28,12,51,26.70
2015,06,28,12,52,26.60
2015,06,28,12,53,26.60
2015,06,28,12,54,26.60
2015,06,28,12,55,26.60
2015,06,28,12,56,26.60
2015,06,28,12,57,26.60
2015,06,28,12,58,26.50
2015,06,28,12,59,26.60
2015,06,28,13,00,26.60
2015,06,28,13,01,26.60
2015,06,28,13,02,26.60
2015,06,28,13,03,26.60
2015,06,28,13,04,26.60
2015,06,28,13,05,26.60
2015,06,28,13,06,26.60
2015,06,28,13,07,26.60
2015,06,28,13,08,26.70
2015,06,28,13,09,26.70
2015,06,28,13,10,26.70
2015,06,28,13,11,26.70
2015,06,28,13,12,26.70
2015,06,28,13,13,26.70
2015,06,28,13,14,26.70
2015,06,28,13,15,26.80
2015,06,28,13,16,26.80
2015,06,28,13,17,26.80
2015,06,28,13,18,26.80
2015,06,28,13,19,26.80
2015,06,28,13,20,26.80
2015,06,28,13,21,26.80
2015,06,28,13,22,26.80
2015,06,28,13,23,26.90
2015,06,28,13,24,26.90
2015,06,28,13,25,26.90
2015,06,28,13,26,26.90
2015,06,28,13,27,26.90
2015,06,28,13,28,26.90
2015,06,28,13,29,27.00
2015,06,28,13,30,27.00
2015,06,28,13,31,27.00
2015,06,28,13,32,27.00
2015,06,28,13,33,26.90
2015,06,28,13,34,26.90
2015,06,28,13,35,26.90
2015,06,28,13,36,26.90
2015,06,28,13,37,26.90
2015,06,28,13,38,26.90
2015,06,28,13,39,26.90
2015,06,28,13,40,26.90
2015,06,28,13,41,26.90
2015,06,28,13,42,26.90
2015,06,28,13,43,26.90
2015,06,28,13,44,26.90
2015,06,28,13,45,26.90
2015,06,28,13,46,26.90
2015,06,28,13,47,26.90
2015,06,28,13,48,26.90
2015,06,28,13,49,26.90
2015,06,28,13,50,26.90
2015,06,28,13,51,26.80
2015,06,28,13,52,26.80
2015,06,28,13,53,26.70
2015,06,28,13,54,26.70
2015,06,28,13,55,26.70
2015,06,28,13,56,26.60
2015,06,28,13,57,26.60
2015,06,28,13,58,26.60
2015,06,28,13,59,26.50
2015,06,28,14,00,26.50
2015,06,28,14,01,26.40
2015,06,28,14,02,26.40
2015,06,28,14,03,26.40
2015,06,28,14,04,26.40
2015,06,28,14,05,26.40
2015,06,28,14,06,26.40
2015,06,28,14,07,26.30
2015,06,28,14,08,26.30
2015,06,28,14,09,26.30
2015,06,28,14,10,26.30
2015,06,28,14,11,26.30
2015,06,28,14,12,26.30
2015,06,28,14,13,26.30
2015,06,28,14,14,26.30
2015,06,28,14,15,26.20
2015,06,28,14,16,26.20
2015,06,28,14,17,26.20
2015,06,28,14,18,26.20
2015,06,28,14,19,26.20
2015,06,28,14,20,26.20
2015,06,28,14,21,26.20
2015,06,28,14,22,26.20
2015,06,28,14,23,26.20
2015,06,28,14,24,26.20
2015,06,28,14,25,26.20
2015,06,28,14,26,26.20
2015,06,28,14,27,26.20
2015,06,28,14,28,26.20
2015,06,28,14,29,26.10
2015,06,28,14,30,26.10
2015,06,28,14,31,26.10
2015,06,28,14,32,26.10
2015,06,28,14,33,26.10
2015,06,28,14,34,26.00
2015,06,28,14,35,25.90
2015,06,28,14,36,25.90
2015,06,28,14,37,25.90
2015,06,28,14,38,25.90
2015,06,28,14,39,25.90
2015,06,28,14,40,25.90
2015,06,28,14,41,25.90
2015,06,28,14,42,25.90
2015,06,28,14,43,25.90
2015,06,28,14,44,25.90
2015,06,28,14,45,25.90
2015,06,28,14,46,25.90
2015,06,28,14,47,25.90
2015,06,28,14,48,25.90
2015,06,28,14,49,25.90
2015,06,28,14,50,25.80
2015,06,28,14,51,25.80
2015,06,28,14,52,25.80
2015,06,28,14,53,25.80
2015,06,28,14,54,25.90
2015,06,28,14,55,25.90
2015,06,28,14,56,25.90
2015,06,28,14,57,25.90
2015,06,28,14,58,25.90
2015,06,28,14,59,25.90
2015,06,28,15,00,25.90
2015,06,28,15,01,25.90
2015,06,28,15,02,25.90
2015,06,28,15,03,25.90
2015,06,28,15,04,25.90
2015,06,28,15,05,25.90
2015,06,28,15,06,25.90
2015,06,28,15,07,25.80
2015,06,28,15,08,25.80
2015,06,28,15,09,25.80
2015,06,28,15,10,25.80
2015,06,28,15,11,25.80
2015,06,28,15,12,25.70
2015,06,28,15,13,25.70
2015,06,28,15,14,25.70
2015,06,28,15,15,25.60
2015,06,28,15,16,25.60
2015,06,28,15,17,25.60
2015,06,28,15,18,25.50
2015,06,28,15,19,25.50
2015,06,28,15,20,25.40
2015,06,28,15,21,25.40
2015,06,28,15,22,25.40
2015,06,28,15,23,25.40
2015,06,28,15,24,25.30
2015,06,28,15,25,25.30
2015,06,28,15,26,25.30
2015,06,28,15,27,25.20
2015,06,28,15,28,25.20
2015,06,28,15,29,25.20
2015,06,28,15,30,25.20
2015,06,28,15,31,25.10
2015,06,28,15,32,25.10
2015,06,28,15,33,25.10
2015,06,28,15,34,25.10
2015,06,28,15,35,25.10
2015,06,28,15,36,25.10
2015,06,28,15,37,25.10
2015,06,28,15,38,25.10
2015,06,28,15,39,25.10
2015,06,28,15,40,25.00
2015,06,28,15,41,25.00
2015,06,28,15,42,25.00
2015,06,28,15,43,24.90
2015,06,28,15,44,24.90
2015,06,28,15,45,24.90
2015,06,28,15,46,24.90
2015,06,28,15,47,24.90
2015,06,28,15,48,24.90
2015,06,28,15,49,24.90
2015,06,28,15,50,24.90
2015,06,28,15,51,24.90
2015,06,28,15,52,24.90
2015,06,28,15,53,24.90
2015,06,28,15,54,24.90
2015,06,28,15,55,24.90
2015,06,28,15,56,24.80
2015,06,28,15,57,24.80
2015,06,28,15,58,24.80
2015,06,28,15,59,24.80
2015,06,28,16,00,24.70
2015,06,28,16,01,24.70
2015,06,28,16,02,24.70
2015,06,28,16,03,24.60
2015,06,28,16,04,24.60
2015,06,28,16,05,24.60
2015,06,28,16,06,24.60
2015,06,28,16,07,24.60
2015,06,28,16,08,24.60
2015,06,28,16,09,24.50
2015,06,28,16,10,24.50
2015,06,28,16,11,24.50
2015,06,28,16,12,24.60
2015,06,28,16,13,24.60
2015,06,28,16,14,24.60
2015,06,28,16,15,24.60
2015,06,28,16,16,24.60
2015,06,28,16,17,24.60
2015,06,28,16,18,24.70
2015,06,28,16,19,24.70
2015,06,28,16,20,24.70
2015,06,28,16,21,24.60
2015,06,28,16,22,24.60
2015,06,28,16,23,24.60
2015,06,28,16,24,24.60
2015,06,28,16,25,24.60
2015,06,28,16,26,24.60
2015,06,28,16,27,24.60
2015,06,28,16,28,24.60
2015,06,28,16,29,24.60
2015,06,28,16,30,24.60
2015,06,28,16,31,24.60
2015,06,28,16,32,24.60
2015,06,28,16,33,24.60
2015,06,28,16,34,24.70
2015,06,28,16,35,24.70
2015,06,28,16,36,24.70
2015,06,28,16,37,24.70
2015,06,28,16,38,24.70
2015,06,28,16,39,24.70
2015,06,28,16,40,24.70
2015,06,28,16,41,24.70
2015,06,28,16,42,24.70
2015,06,28,16,43,24.70
2015,06,28,16,44,24.70
2015,06,28,16,45,24.70
2015,06,28,16,46,24.70
2015,06,28,16,47,24.70
2015,06,28,16,48,24.70
2015,06,28,16,49,24.70
2015,06,28,16,50,24.70
2015,06,28,16,51,24.70
2015,06,28,16,52,24.70
2015,06,28,16,53,24.70
2015,06,28,16,54,24.70
2015,06,28,16,55,24.70
2015,06,28,16,56,24.70
2015,06,28,16,57,24.70
2015,06,28,16,58,24.60
2015,06,28,16,59,24.60
2015,06,28,17,00,24.60
2015,06,28,17,01,24.60
2015,06,28,17,02,24.60
2015,06,28,17,03,24.60
2015,06,28,17,04,24.50
2015,06,28,17,05,24.50
2015,06,28,17,06,24.50
2015,06,28,17,07,24.40
2015,06,28,17,08,24.40
2015,06,28,17,09,24.40
2015,06,28,17,10,24.40
2015,06,28,17,11,24.30
2015,06,28,17,12,24.30
2015,06,28,17,13,24.30
2015,06,28,17,14,24.30
2015,06,28,17,15,24.30
2015,06,28,17,16,24.30
2015,06,28,17,17,24.30
2015,06,28,17,18,24.20
2015,06,28,17,19,24.20